Location: Härggis
(46.9540°N, 8.4897°E)
Time: 01:57:47
(UTC+00:00)

Cosmos 2333 Rocket - Pass Details

Date: 27 May 2022
Orbit: 839 x 863 km, 70.8° (Epoch: 26 June)

Event Time Altitude Azimuth Distance (km) Brightness Sun altitude
Exits shadow 00:07:16 14° 255° (WSW) 2,190 4.1 -21.1°
Maximum altitude 00:11:21 30° 311° (NW) 1,462 3.7 -20.9°
Drops below altitude 10° 00:16:20 10° 12° (NNE) 2,479 5.8 -20.7°
Sets 00:19:06 0° 23° (NNE) 3,422 6.9 -20.6°
